Shungnak AP, Shungnak, AK, AK

12:09 AM AKST on December 07, 2019 (GMT -0900)
Shungnak AP, Shungnak, AK

Weather History for PAGH - October, 2019

Change the Weather History Date:

Tuesday, October 15, 2019

  Actual Average (WUND) Record (WUND)
Temperature  
Mean Temperature 30 °F -  
Max Temperature 37 °F - - (-1)
Min Temperature 24 °F - - (-1)
Degree Days  
Heating Degree Days 35    
Moisture  
Dew Point 10 °F    
Average Humidity 47    
Maximum Humidity 60    
Minimum Humidity 33    
Precipitation  
Precipitation 0.00 in - - ()
Sea Level Pressure  
Sea Level Pressure 29.58 in    
Wind  
Wind Speed 15 mph (East)    
Max Wind Speed 22 mph    
Max Gust Speed 26 mph    
Visibility 10 miles    
Events      
Averages and records for this station are not official NWS values.
T = Trace of Precipitation, MM = Missing Value Source: NWS Daily Summary

Daily Weather History Graph

Daily Weather History Graph

Search for Another Location

Airport or City:

Astronomy

Oct. 15, 2019 Rise Set
Actual Time 9:28 AM AKDT 6:59 PM AKDT
Civil Twilight 8:33 AM AKDT 7:53 PM AKDT
Nautical Twilight 7:32 AM AKDT 8:54 PM AKDT
Astronomical Twilight 6:29 AM AKDT 9:57 PM AKDT
Moon 7:45 PM AKDT (10/15) 11:41 AM AKDT (10/15)
Length of Visible Light 11h 19m
Length of Day
9h 30m
Waning Gibbous, 96% of the Moon is Illuminated
Oct 15
Waning Gibbous
Oct 21
Last Quarter
Oct 27
New
Nov 4
First Quarter
Nov 12
Full

Hourly Weather History & Observations

Time (AKDT) Temp. Windchill Dew Point Humidity Pressure Visibility Wind Dir Wind Speed Gust Speed Precip Events Conditions
12:56 AM 24.1 °F 9.8 °F 12.0 °F 60% 29.74 in 10.0 mi ESE 19.6 mph 25.3 mph N/A   Clear
1:56 AM 24.1 °F 9.0 °F 12.0 °F 60% 29.72 in 10.0 mi East 21.9 mph 26.5 mph N/A   Clear
2:56 AM 24.1 °F 11.0 °F 10.9 °F 57% 29.70 in 10.0 mi East 16.1 mph 24.2 mph N/A   Clear
3:56 AM 24.1 °F 13.1 °F 10.9 °F 57% 29.69 in 10.0 mi East 11.5 mph - N/A   Clear
4:56 AM 25.0 °F 12.6 °F 10.9 °F 55% 29.67 in 10.0 mi East 15.0 mph 20.7 mph N/A   Clear
5:56 AM 24.1 °F 11.0 °F 10.0 °F 55% 29.65 in 10.0 mi East 16.1 mph - N/A   Clear
6:56 AM 25.0 °F 13.1 °F 10.0 °F 53% 29.64 in 10.0 mi East 13.8 mph - N/A   Clear
7:56 AM 24.1 °F 11.0 °F 9.0 °F 53% 29.62 in 10.0 mi East 16.1 mph - N/A   Clear
8:56 AM 25.0 °F 10.9 °F 9.0 °F 51% 29.61 in 10.0 mi East 19.6 mph - N/A   Clear
9:56 AM 26.1 °F 14.0 °F 9.0 °F 49% 29.60 in 10.0 mi East 15.0 mph - N/A   Clear
10:56 AM 28.0 °F 16.1 °F 10.0 °F 47% 29.59 in 10.0 mi ENE 16.1 mph - N/A   Clear
11:56 AM 30.0 °F 19.1 °F 10.0 °F 43% 29.58 in 10.0 mi East 15.0 mph - N/A   Clear
1:56 PM 33.1 °F 23.0 °F 8.1 °F 35% 29.55 in 10.0 mi East 15.0 mph - N/A   Clear
2:56 PM 34.0 °F 25.5 °F 9.0 °F 35% 29.54 in 10.0 mi East 11.5 mph - N/A   Clear
3:56 PM 35.1 °F 27.4 °F 9.0 °F 34% 29.52 in 10.0 mi East 10.4 mph - N/A   Clear
4:56 PM 36.0 °F 28.0 °F 9.0 °F 33% 29.51 in 6.0 mi East 11.5 mph - N/A   Haze
5:56 PM 36.0 °F 28.0 °F 9.0 °F 33% 29.49 in 10.0 mi ESE 11.5 mph - N/A   Clear
6:56 PM 34.0 °F - 10.0 °F 37% 29.49 in 10.0 mi Calm Calm - N/A   Clear
7:56 PM 33.1 °F 24.9 °F 10.0 °F 38% 29.48 in 10.0 mi East 10.4 mph - N/A   Clear
8:56 PM 28.9 °F 21.1 °F 12.9 °F 51% 29.48 in 10.0 mi SE 8.1 mph - N/A   Clear
9:56 PM 28.9 °F 23.9 °F 12.9 °F 51% 29.49 in 10.0 mi SSE 4.6 mph - N/A   Clear
10:56 PM 26.1 °F 18.4 °F 12.9 °F 58% 29.49 in 10.0 mi SE 6.9 mph - N/A   Clear
11:56 PM 28.9 °F 18.6 °F 10.9 °F 47% 29.48 in 10.0 mi East 12.7 mph - N/A   Clear